Weather History for Burlington, NC

Change the Weather History Date:

Friday, December 28, 2012

  Actual Average Record
Temperature  
Mean Temperature 34 °F -  
Max Temperature 43 °F 49 °F 73 °F (1971)
Min Temperature 26 °F 29 °F 16 °F (1983)
Degree Days  
Heating Degree Days 30    
Moisture  
Dew Point 26 °F    
Average Humidity 70    
Maximum Humidity 88    
Minimum Humidity 51    
Precipitation  
Precipitation 0.00 in - - ()
Sea Level Pressure  
Sea Level Pressure 30.08 in    
Wind  
Wind Speed 3 mph (NW)    
Max Wind Speed 31 mph    
Max Gust Speed 66 mph    
Visibility 10 miles    
Events      
Averages and records for this station are not official NWS values.
T = Trace of Precipitation, MM = Missing Value Source: NWS Daily Summary

Daily Weather History Graph

Daily Weather History Graph

Search for Another Location

Airport:

Trip Planner

Search our weather history database for the weather conditions in past years. The results will help you decide how hot, cold, wet, or windy it might be!

Date:

Astronomy

Dec. 28, 2012 Rise Set
Actual Time 7:27 AM EST 5:11 PM EST
Civil Twilight 6:59 AM EST 5:40 PM EST
Nautical Twilight 6:27 AM EST 6:12 PM EST
Astronomical Twilight 5:55 AM EST 6:43 PM EST
Moon 5:45 PM EST (12/28) 7:22 AM EST (12/28)
Length of Visible Light 10h 41m
Length of Day
9h 43m
Full, 100% of the Moon is Illuminated
Dec 28
Full
Jan 4
Last Quarter
Jan 11
New
Jan 18
First Quarter
Jan 26
Full

Hourly Weather History & Observations

Time (EST) Temp. Windchill Dew Point Humidity Pressure Visibility Wind Dir Wind Speed Gust Speed Precip Events Conditions
12:54 AM 33.1 °F 28.7 °F 23.0 °F 66% 30.07 in 10.0 mi NW 4.6 mph - N/A   Clear
1:54 AM 30.9 °F - 23.0 °F 72% 30.08 in 10.0 mi Calm Calm - N/A   Clear
2:54 AM 30.0 °F - 23.0 °F 75% 30.09 in 10.0 mi Calm Calm - N/A   Clear
3:54 AM 30.0 °F 26.5 °F 23.0 °F 75% 30.09 in 10.0 mi North 3.5 mph - N/A   Clear
4:54 AM 30.0 °F - 23.0 °F 75% 30.09 in 10.0 mi Calm Calm - N/A   Clear
6:54 AM 27.0 °F - 21.9 °F 81% 30.15 in 10.0 mi Calm Calm - N/A   Clear
7:54 AM 26.1 °F - 23.0 °F 88% 30.14 in 10.0 mi Calm Calm - N/A   Clear
8:54 AM 30.0 °F - 26.1 °F 85% 30.15 in 10.0 mi Calm Calm - N/A   Clear
9:54 AM 34.0 °F - 26.1 °F 73% 30.18 in 10.0 mi Calm Calm - N/A   Clear
10:54 AM 36.0 °F - 26.1 °F 67% 30.19 in 10.0 mi Calm Calm - N/A   Clear
11:54 AM 37.9 °F - 25.0 °F 60% 30.15 in 10.0 mi Calm Calm - N/A   Mostly Cloudy
12:54 PM 39.9 °F - 26.1 °F 58% 30.11 in 10.0 mi Calm Calm - N/A   Overcast
1:54 PM 41.0 °F - 26.1 °F 55% 30.09 in 10.0 mi Calm Calm - N/A   Overcast
2:54 PM 42.1 °F 40.2 °F 27.0 °F 55% 30.10 in 10.0 mi WNW 3.5 mph - N/A   Overcast
3:54 PM 43.0 °F - 26.1 °F 51% 30.06 in 10.0 mi Calm Calm - N/A   Clear
4:54 PM 41.0 °F - 27.0 °F 57% 30.04 in 10.0 mi Calm Calm - N/A   Clear
5:54 PM 37.9 °F 35.5 °F 27.0 °F 65% 30.05 in 10.0 mi SE 3.5 mph - N/A   Clear
6:01 PM 39.2 °F 27.2 °F 26.6 °F 61% 30.03 in 10.0 mi NNW 31.1 mph 65.6 mph N/A   Squalls
6:31 PM 37.4 °F 25.2 °F 26.6 °F 65% 30.03 in 10.0 mi NNW 28.8 mph 48.3 mph N/A   Squalls
6:54 PM 36.0 °F 32.1 °F 28.0 °F 73% 30.05 in 10.0 mi Variable 4.6 mph - N/A   Clear
7:03 PM 35.6 °F - 28.4 °F 75% 30.04 in 10.0 mi North - - N/A   Clear
7:54 PM 36.0 °F - 28.9 °F 76% 30.07 in 10.0 mi Calm Calm - N/A   Clear
8:54 PM 35.1 °F - 30.0 °F 82% 30.06 in 10.0 mi Calm Calm - N/A   Clear
9:54 PM 35.1 °F - 28.9 °F 78% 30.04 in 10.0 mi Calm Calm - N/A   Clear
10:54 PM 35.1 °F - 30.0 °F 82% 30.03 in 10.0 mi Calm Calm - N/A   Clear
11:54 PM 36.0 °F - 28.9 °F 76% 29.99 in 10.0 mi Calm Calm - N/A   Clear